When you browse on this site, cookies collect data to enhance your experience and personalize the content and advertising you see.
Visit our Privacy Policy to learn more. By continuing to use the site, you agree to this use of cookies and data.
  • In Czech Republic
  • List of Countries
  • For 7 days
  • Water Temperature
  • Weather Map
  • Weather Widgets
  • user-avatar
    Login

    Hourly Weather Vetas

    Today, 5 June, Friday

    Time Temperature Precipitation Wind Pressure Humidity
    00:00 +3°C° 0 mm 2 mps 492 mmHg 86%
    01:00 +3°C° 0 mm 2 mps 492 mmHg 86%
    02:00 +3°C° 0 mm 2 mps 492 mmHg 86%
    03:00 +3°C° 0 mm 2 mps 492 mmHg 85%
    04:00 +4°C° 0 mm 2 mps 492 mmHg 85%
    05:00 +5°C° 0 mm 2 mps 493 mmHg 83%
    06:00 +5°C° 0 mm 2 mps 494 mmHg 81%
    07:00 +7°C° 0 mm 1 mps 495 mmHg 79%
    08:00 +8°C° 0.1 mm 2 mps 496 mmHg 76%
    09:00 +9°C° 0.1 mm 2 mps 497 mmHg 73%
    10:00 +12°C° 0.1 mm 2 mps 498 mmHg 70%
    11:00 +10°C° 0.7 mm 2 mps 498 mmHg 73%
    12:00 +10°C° 0.7 mm 2 mps 497 mmHg 76%
    13:00 +10°C° 0.7 mm 2 mps 496 mmHg 79%
    14:00 +10°C° 1.1 mm 2 mps 496 mmHg 82%
    15:00 +10°C° 1.1 mm 1 mps 495 mmHg 86%
    16:00 +10°C° 1.1 mm 1 mps 494 mmHg 90%
    17:00 +8°C° 0.6 mm 1 mps 494 mmHg 92%
    18:00 +7°C° 0.6 mm 1 mps 494 mmHg 93%
    19:00 +5°C° 0.6 mm 2 mps 493 mmHg 95%
    20:00 +5°C° 0.1 mm 2 mps 493 mmHg 94%
    21:00 +5°C° 0.1 mm 2 mps 494 mmHg 93%
    22:00 +5°C° 0.1 mm 2 mps 494 mmHg 92%
    23:00 +4°C° 0.2 mm 2 mps 493 mmHg 92%

    Tomorrow, 6 June, Saturday

    Time Temperature Precipitation Wind Pressure Humidity
    00:00 +4°C° 0.2 mm 2 mps 493 mmHg 92%
    01:00 +4°C° 0.2 mm 2 mps 493 mmHg 91%
    02:00 +4°C° 0.2 mm 2 mps 493 mmHg 91%
    03:00 +4°C° 0.2 mm 2 mps 493 mmHg 90%
    04:00 +5°C° 0.2 mm 1 mps 492 mmHg 90%
    05:00 +6°C° 0.2 mm 1 mps 493 mmHg 88%
    06:00 +6°C° 0.2 mm 1 mps 494 mmHg 87%
    07:00 +7°C° 0.2 mm 1 mps 495 mmHg 85%
    08:00 +8°C° 0.4 mm 1 mps 496 mmHg 86%
    09:00 +9°C° 0.4 mm 1 mps 496 mmHg 87%
    10:00 +9°C° 0.4 mm 2 mps 497 mmHg 87%
    11:00 +9°C° 1.4 mm 1 mps 496 mmHg 90%
    12:00 +8°C° 1.4 mm 1 mps 495 mmHg 93%
    13:00 +8°C° 1.4 mm 1 mps 494 mmHg 95%
    14:00 +8°C° 1.2 mm 1 mps 494 mmHg 95%
    15:00 +7°C° 1.2 mm 1 mps 494 mmHg 94%
    16:00 +7°C° 1.2 mm 1 mps 493 mmHg 93%
    17:00 +7°C° 0.1 mm 1 mps 493 mmHg 92%
    18:00 +6°C° 0.1 mm 1 mps 493 mmHg 91%
    19:00 +5°C° 0.1 mm 2 mps 493 mmHg 90%
    20:00 +4°C° 0 mm 2 mps 493 mmHg 89%
    21:00 +4°C° 0 mm 2 mps 493 mmHg 87%
    22:00 +4°C° 0 mm 2 mps 494 mmHg 85%
    23:00 +4°C° 0 mm 2 mps 493 mmHg 85%

    Day after tomorrow, 7 June, Sunday

    Time Temperature Precipitation Wind Pressure Humidity
    00:00 +4°C° 0 mm 2 mps 493 mmHg 86%
    01:00 +3°C° 0 mm 2 mps 493 mmHg 86%
    02:00 +3°C° 0 mm 2 mps 492 mmHg 86%
    03:00 +3°C° 0 mm 2 mps 492 mmHg 86%
    04:00 +3°C° 0 mm 2 mps 492 mmHg 85%
    05:00 +5°C° 0 mm 1 mps 493 mmHg 83%
    06:00 +6°C° 0 mm 1 mps 494 mmHg 80%
    07:00 +7°C° 0 mm 1 mps 495 mmHg 77%
    08:00 +9°C° 0.1 mm 1 mps 496 mmHg 75%
    09:00 +9°C° 0.1 mm 2 mps 497 mmHg 73%
    10:00 +10°C° 0.1 mm 2 mps 498 mmHg 70%
    11:00 +10°C° 1 mm 2 mps 497 mmHg 75%
    12:00 +10°C° 1 mm 2 mps 497 mmHg 80%
    13:00 +10°C° 1 mm 1 mps 496 mmHg 84%
    14:00 +10°C° 1.2 mm 1 mps 495 mmHg 85%
    15:00 +10°C° 1.2 mm 1 mps 495 mmHg 86%
    16:00 +10°C° 1.2 mm 1 mps 494 mmHg 88%
    17:00 +8°C° 0.7 mm 1 mps 494 mmHg 90%
    18:00 +7°C° 0.7 mm 1 mps 493 mmHg 93%
    19:00 +6°C° 0.7 mm 1 mps 493 mmHg 96%
    20:00 +5°C° 0.1 mm 1 mps 493 mmHg 94%
    21:00 +5°C° 0.1 mm 1 mps 493 mmHg 93%
    22:00 +4°C° 0.1 mm 2 mps 494 mmHg 91%
    23:00 +5°C° 0.2 mm 1 mps 493 mmHg 90%

    8 June, Monday

    Time Temperature Precipitation Wind Pressure Humidity
    00:00 +5°C° 0.2 mm 1 mps 493 mmHg 89%
    01:00 +4°C° 0.2 mm 1 mps 493 mmHg 88%
    02:00 +4°C° 0.1 mm 1 mps 492 mmHg 88%
    03:00 +4°C° 0.1 mm 1 mps 492 mmHg 87%
    04:00 +4°C° 0.1 mm 1 mps 492 mmHg 87%
    05:00 +5°C° 0 mm 1 mps 493 mmHg 86%
    06:00 +6°C° 0 mm 1 mps 494 mmHg 84%
    07:00 +6°C° 0 mm 1 mps 495 mmHg 83%
    08:00 +8°C° 0.1 mm 1 mps 496 mmHg 80%
    09:00 +8°C° 0.1 mm 2 mps 497 mmHg 76%
    10:00 +10°C° 0.1 mm 2 mps 498 mmHg 73%
    11:00 +9°C° 0.9 mm 2 mps 497 mmHg 78%
    12:00 +9°C° 0.9 mm 2 mps 496 mmHg 83%
    13:00 +9°C° 0.9 mm 1 mps 496 mmHg 89%
    14:00 +9°C° 1 mm 1 mps 495 mmHg 91%
    15:00 +9°C° 1 mm 1 mps 494 mmHg 93%
    16:00 +8°C° 1 mm 1 mps 494 mmHg 95%
    17:00 +8°C° 0.6 mm 1 mps 494 mmHg 96%
    18:00 +7°C° 0.6 mm 1 mps 493 mmHg 97%
    19:00 +6°C° 0.6 mm 1 mps 493 mmHg 97%
    20:00 +6°C° 0.3 mm 1 mps 493 mmHg 97%
    21:00 +5°C° 0.3 mm 1 mps 494 mmHg 96%
    22:00 +5°C° 0.3 mm 1 mps 494 mmHg 95%
    23:00 +5°C° 0.6 mm 1 mps 494 mmHg 94%

    9 June, Tuesday

    Time Temperature Precipitation Wind Pressure Humidity
    00:00 +5°C° 0.6 mm 1 mps 493 mmHg 94%
    01:00 +4°C° 0.6 mm 0 mps 493 mmHg 94%
    02:00 +4°C° 1.2 mm 0 mps 493 mmHg 94%
    03:00 +4°C° 1.2 mm 0 mps 493 mmHg 95%
    04:00 +4°C° 1.2 mm 0 mps 493 mmHg 95%
    05:00 +5°C° 0.2 mm 0 mps 493 mmHg 95%
    06:00 +5°C° 0.2 mm 0 mps 494 mmHg 94%
    07:00 +5°C° 0.2 mm 0 mps 494 mmHg 94%
    08:00 +7°C° 0.4 mm 1 mps 495 mmHg 93%
    09:00 +8°C° 0.4 mm 1 mps 495 mmHg 92%
    10:00 +8°C° 0.4 mm 1 mps 496 mmHg 91%
    11:00 +8°C° 1.2 mm 1 mps 496 mmHg 90%
    12:00 +8°C° 1.2 mm 1 mps 495 mmHg 90%
    13:00 +8°C° 1.2 mm 1 mps 495 mmHg 89%
    14:00 +8°C° 1.4 mm 1 mps 494 mmHg 91%
    15:00 +8°C° 1.4 mm 1 mps 494 mmHg 92%
    16:00 +8°C° 1.4 mm 1 mps 493 mmHg 94%
    17:00 +7°C° 0.7 mm 1 mps 493 mmHg 94%
    18:00 +7°C° 0.7 mm 1 mps 493 mmHg 94%
    19:00 +6°C° 0.7 mm 1 mps 493 mmHg 93%
    20:00 +6°C° 0.4 mm 1 mps 493 mmHg 93%
    21:00 +6°C° 0.4 mm 1 mps 493 mmHg 93%
    22:00 +5°C° 0.4 mm 0 mps 493 mmHg 92%
    23:00 +5°C° 0.1 mm 0 mps 493 mmHg 92%

    10 June, Wednesday

    Time Temperature Precipitation Wind Pressure Humidity
    00:00 +5°C° 0.1 mm 0 mps 493 mmHg 92%
    01:00 +5°C° 0.1 mm 0 mps 493 mmHg 92%
    02:00 +5°C° 0.1 mm 0 mps 492 mmHg 93%
    03:00 +4°C° 0.1 mm 0 mps 492 mmHg 93%
    04:00 +4°C° 0.1 mm 0 mps 492 mmHg 94%
    05:00 +4°C° 0.2 mm 0 mps 493 mmHg 93%
    06:00 +5°C° 0.2 mm 0 mps 493 mmHg 93%
    07:00 +5°C° 0.2 mm 0 mps 493 mmHg 93%
    08:00 +6°C° 0.2 mm 0 mps 494 mmHg 89%
    09:00 +8°C° 0.2 mm 1 mps 495 mmHg 85%
    10:00 +9°C° 0.2 mm 1 mps 496 mmHg 81%
    11:00 +9°C° 0.9 mm 1 mps 495 mmHg 84%
    12:00 +9°C° 0.9 mm 1 mps 495 mmHg 87%
    13:00 +9°C° 0.9 mm 1 mps 494 mmHg 90%
    14:00 +9°C° 1.4 mm 1 mps 494 mmHg 92%
    15:00 +9°C° 1.4 mm 1 mps 493 mmHg 93%
    16:00 +8°C° 1.4 mm 1 mps 492 mmHg 95%
    17:00 +8°C° 1.5 mm 1 mps 492 mmHg 95%
    18:00 +7°C° 1.5 mm 1 mps 492 mmHg 95%
    19:00 +6°C° 1.5 mm 1 mps 492 mmHg 96%
    20:00 +6°C° 0.7 mm 1 mps 492 mmHg 96%
    21:00 +6°C° 0.7 mm 1 mps 493 mmHg 95%
    22:00 +5°C° 0.7 mm 1 mps 493 mmHg 95%
    23:00 +5°C° 1 mm 1 mps 493 mmHg 95%
    Show more